GFSNIL_850_spd_021.txt.gz
Wind_Speed
40 46 47 44 40 41 45 50 46 44 40 37 34 31 29 26 24 21 20 19 16 14
32 40 43 44 42 42 39 43 46 43 42 37 33 31 29 27 24 22 19 17 17 16
27 34 37 40 42 43 38 39 44 44 41 38 34 31 29 27 23 21 20 17 15 14
22 27 31 36 42 40 38 38 43 44 41 38 35 31 29 27 24 22 19 18 17 16
20 23 27 32 37 39 38 37 40 43 40 38 36 33 30 27 22 22 22 19 17 16
21 21 24 27 33 36 38 37 39 42 40 38 36 34 31 27 24 22 20 18 17 16
22 21 21 25 29 35 37 38 39 40 41 38 36 34 31 27 24 21 19 18 18 16
24 22 21 24 28 32 36 38 38 39 40 38 36 34 32 29 26 22 19 18 16 16
29 22 23 24 26 31 34 37 38 38 38 37 36 33 32 30 26 22 19 18 16 14
28 24 25 25 27 31 33 37 37 37 36 37 35 33 32 28 22 20 17 15 14 13
31 26 25 24 28 29 32 37 37 36 35 34 32 33 29 26 24 18 15 14 14 15
36 31 26 25 29 31 32 36 35 35 34 35 33 30 27 25 25 19 15 14 14 14
37 32 31 28 30 32 33 36 35 34 35 33 29 29 27 25 20 14 13 13 12 15
40 33 32 30 32 32 33 36 37 36 35 32 28 27 27 23 19 14 13 11 10 10

GFSNIL_850_spd_024.txt.gz
Wind_Speed
31 30 34 38 48 47 47 47 47 49 48 48 43 39 36 33 31 28 26 24 24 21
33 32 30 34 43 47 43 44 47 48 47 49 46 42 39 36 33 30 28 26 24 23
34 36 33 31 35 45 46 40 47 47 45 47 47 43 40 37 34 31 29 26 24 23
33 36 34 30 28 37 41 43 44 43 45 45 47 46 41 38 34 31 29 26 24 21
33 32 32 30 29 28 34 38 43 44 43 44 47 47 44 39 35 33 30 26 25 23
28 30 28 31 27 29 31 36 41 44 45 44 47 48 44 39 34 32 29 27 25 22
29 30 33 29 27 27 30 32 37 42 43 42 45 48 45 39 33 30 27 26 24 22
35 33 31 31 26 28 31 27 36 40 41 40 45 47 45 40 34 31 27 24 21 20
36 29 32 35 25 23 29 32 29 38 41 39 43 46 44 38 34 30 28 25 25 22
37 31 28 33 35 25 24 29 27 36 38 39 42 42 41 38 33 31 28 26 21 18
33 28 35 35 35 29 27 27 27 35 38 39 40 39 39 38 33 29 27 24 20 16
37 43 40 32 33 33 31 24 28 33 38 39 39 38 39 38 32 28 24 21 18 18
46 46 43 36 32 34 33 28 24 32 37 38 39 37 37 36 33 28 24 19 17 16
42 49 43 37 32 29 31 29 23 31 36 39 38 37 35 34 34 29 22 17 13 10

GFSNIL_850_spd_030.txt.gz
Wind_Speed
28 26 26 29 32 36 39 34 32 33 31 34 43 55 51 46 43 42 42 43 42 40
30 28 31 31 32 36 35 32 36 33 33 31 37 47 56 51 47 42 42 42 43 41
35 38 40 39 35 32 35 36 39 35 33 29 32 43 50 56 51 44 44 42 42 41
36 37 36 37 34 30 34 38 36 37 32 28 28 40 50 54 54 47 41 44 41 42
34 30 35 35 31 31 35 36 38 34 33 31 26 34 47 53 54 49 44 44 42 43
36 34 34 33 33 33 34 37 35 32 30 33 30 30 42 48 51 50 43 44 43 43
37 37 37 33 31 36 38 33 37 34 35 37 32 36 39 43 42 50 43 45 43 42
36 37 33 28 38 35 29 28 32 37 39 41 38 40 35 43 43 53 47 46 43 40
41 36 37 38 32 28 30 35 39 42 42 43 45 37 37 41 51 48 49 46 41 38
40 34 36 31 31 37 39 41 44 42 39 41 45 37 36 42 50 46 49 44 39 36
38 39 31 36 40 35 37 42 42 39 37 41 44 31 34 37 41 44 48 40 35 35
38 38 35 39 39 34 40 46 41 40 37 40 41 27 26 33 34 43 45 36 33 33
38 34 34 39 33 38 45 44 39 40 32 36 34 27 24 30 39 42 39 33 32 30
33 34 36 34 39 46 44 39 39 35 27 33 26 23 26 33 41 35 35 35 34 30

GFSNIL_850_spd_036.txt.gz
Wind_Speed
31 31 32 31 29 30 29 25 24 23 23 22 24 23 24 27 28 30 32 34 39 44
35 35 32 33 35 36 31 26 26 21 20 22 24 24 23 26 29 29 32 35 34 39
38 38 39 39 40 34 32 28 23 22 21 23 23 24 22 24 25 29 29 32 36 35
46 45 42 42 36 31 32 30 28 23 21 22 23 24 25 26 26 26 30 28 31 34
45 46 41 37 36 31 31 30 27 24 24 26 27 25 23 25 27 27 27 30 30 32
45 42 37 34 32 32 32 33 30 30 32 30 26 22 22 23 28 30 29 28 31 34
48 45 39 37 38 34 32 34 32 32 29 23 20 24 28 29 31 34 35 33 31 34
45 45 44 39 40 42 39 34 31 33 29 29 31 32 35 34 33 36 38 35 32 31
42 44 44 39 42 40 36 33 32 33 32 35 35 31 33 32 35 36 37 38 34 32
42 42 41 42 39 40 38 32 32 32 32 36 36 30 34 33 32 33 36 37 37 32
42 41 40 39 38 38 37 32 31 32 33 36 36 37 37 31 31 36 38 39 40 34
42 40 38 38 36 37 30 32 35 30 33 37 43 41 38 30 31 36 37 40 42 33
44 42 37 38 35 32 29 31 29 33 36 41 46 40 33 29 34 39 38 40 40 31
38 33 36 32 32 30 27 29 30 35 40 42 38 35 29 30 32 34 40 40 32 34